RDS149 KCLT-KATL

Flight info

Callsign RDS149
Flight time N/A
Altitude 30000
Route BOBZY5 TNSLY LEAVI OZZZI2
Aircraft A320/M-VGDW/C

Departure

Time 2026-05-05 02:49
Airport Charlotte Douglas International Airport (KCLT)

Arrival

Time N/A
Airport Hartsfield Jackson Atlanta International Airport (KATL)
Time Latitude Longitude Altitude Speed Heading
2026-05-05 02:29 35.21826 -80.94162 724 ft 0 kts 258°
2026-05-05 02:35 35.21830 -80.94142 725 ft 4 kts 252°
2026-05-05 02:35 35.21840 -80.94112 724 ft 4 kts 238°
2026-05-05 02:36 35.21856 -80.94086 724 ft 4 kts 218°
2026-05-05 02:36 35.21878 -80.94073 724 ft 4 kts 173°
2026-05-05 02:36 35.21891 -80.94078 725 ft 0 kts 133°
2026-05-05 02:38 35.21890 -80.94078 725 ft 0 kts 133°
2026-05-05 02:41 35.21889 -80.94076 726 ft 1 kts 133°
2026-05-05 02:41 35.21860 -80.94033 727 ft 11 kts 124°
2026-05-05 02:41 35.21837 -80.93938 725 ft 13 kts 89°
2026-05-05 02:42 35.21879 -80.93833 726 ft 15 kts 47°
2026-05-05 02:42 35.21957 -80.93737 727 ft 17 kts 43°
2026-05-05 02:42 35.22076 -80.93715 729 ft 19 kts 356°
2026-05-05 02:42 35.22213 -80.93728 729 ft 21 kts 355°
2026-05-05 02:43 35.22362 -80.93743 730 ft 21 kts 356°
2026-05-05 02:43 35.22471 -80.93751 731 ft 9 kts 357°
2026-05-05 02:43 35.22494 -80.93740 732 ft 0 kts 54°
2026-05-05 02:45 35.22495 -80.93738 732 ft 1 kts 63°
2026-05-05 02:45 35.22500 -80.93721 731 ft 3 kts 70°
2026-05-05 02:46 35.22509 -80.93655 732 ft 11 kts 88°
2026-05-05 02:46 35.22485 -80.93615 731 ft 0 kts 173°
2026-05-05 02:46 35.22483 -80.93615 731 ft 1 kts 176°
2026-05-05 02:46 35.22482 -80.93615 731 ft 0 kts 176°
2026-05-05 02:48 35.22478 -80.93615 731 ft 2 kts 176°
2026-05-05 02:48 35.22326 -80.93604 730 ft 58 kts 177°
2026-05-05 02:48 35.21644 -80.93543 725 ft 131 kts 176°
2026-05-05 02:48 35.20584 -80.93457 935 ft 161 kts 175°
2026-05-05 02:49 35.19480 -80.93339 1662 ft 160 kts 179°
2026-05-05 02:49 35.18369 -80.93196 2427 ft 162 kts 180°
2026-05-05 02:49 35.17212 -80.93041 2993 ft 175 kts 179°
2026-05-05 02:49 35.15893 -80.92897 3277 ft 205 kts 181°
2026-05-05 02:50 35.14462 -80.93273 3747 ft 224 kts 214°
2026-05-05 02:50 35.13498 -80.94847 4367 ft 246 kts 252°
2026-05-05 02:50 35.13444 -80.96951 5261 ft 258 kts 274°
2026-05-05 02:50 35.13789 -80.99162 6242 ft 264 kts 281°
2026-05-05 02:51 35.14243 -81.01354 7173 ft 268 kts 282°
2026-05-05 02:51 35.14707 -81.03550 8096 ft 272 kts 282°
2026-05-05 02:51 35.15159 -81.05840 9032 ft 275 kts 281°
2026-05-05 02:51 35.15574 -81.08132 9936 ft 279 kts 280°
2026-05-05 02:52 35.15977 -81.10516 10464 ft 297 kts 279°
2026-05-05 02:52 35.16383 -81.13038 10866 ft 314 kts 279°
2026-05-05 02:52 35.16801 -81.15688 11567 ft 320 kts 279°
2026-05-05 02:52 35.17220 -81.18381 12349 ft 324 kts 279°
2026-05-05 02:53 35.17642 -81.21102 13150 ft 328 kts 280°
2026-05-05 02:53 35.18067 -81.23861 13921 ft 331 kts 280°
2026-05-05 02:53 35.18494 -81.26641 14624 ft 334 kts 280°
2026-05-05 02:53 35.18924 -81.29445 15354 ft 337 kts 279°
2026-05-05 02:54 35.19340 -81.32269 16070 ft 338 kts 276°
2026-05-05 02:54 35.19418 -81.35151 16765 ft 341 kts 268°
2026-05-05 02:54 35.19331 -81.38057 17456 ft 343 kts 268°
2026-05-05 02:54 35.19247 -81.40987 18158 ft 346 kts 268°
2026-05-05 02:55 35.19166 -81.43938 18796 ft 349 kts 268°